PROFILE

 METAR AND TAF INFORMATION
ADDS - METARS form results

(2148 UTC 10 December 2018)
http://aviationweather.gov/metar/data/
 
DAAG 102130Z 20002KT 0300 R09/1000VP2000D FG FEW006 08/08 Q1026
DAAG 102100Z 00000KT 0900 R29/0250V1700D FG FEW006 08/08 Q1026
TAF AMD DAAG 102020Z 1020/1118 VRB02KT 0800 FG FEW006 SCT100 BECMG 1023/1103 2000 BR BKN015 BECMG 1104/1108 6000 NSW 

 AIRPORT MAP

 RUNWAY INFORMATION
Runway 05 Runway length 11483 ft Runway width 197 ft
Runway elevation 72 ft Runway displaced threshold 0 ft Runway heading 53
Runway 23 Runway length 11483 ft Runway width 197 ft
Runway elevation 82 ft Runway displaced threshold 0 ft Runway heading 233
Runway 09 Runway length 11483 ft Runway width 148 ft
Runway elevation 56 ft Runway displaced threshold 0 ft Runway heading 92
Runway 27 Runway length 11483 ft Runway width 148 ft
Runway elevation 82 ft Runway displaced threshold 0 ft Runway heading 272

 AIRPORT FREQUENCIES
Type APP Name ALGER APP Frequency 121.4 MHZ
Type GND Name ALGER GND Frequency 121.8 MHZ
Type TWR Name ALGER TWR Frequency 118.7 MHZ

 AIRPORT NEAR NAVIGATION AIDS
Type VOR-DME Name Alger Frequency 112500 KHZ
Type NDB Name Houari Boumediene Frequency 416 KHZ
Type VOR Name Alger Frequency 113900 KHZ
Type NDB Name Houari Boumediene Frequency 370 KHZ